When you browse on this site, cookies collect data to enhance your experience and personalize the content and advertising you see.
Visit our Privacy Policy to learn more. By continuing to use the site, you agree to this use of cookies and data.
  • In Czech Republic
  • List of Countries
  • For 7 days
  • Water Temperature
  • Weather Map
  • Weather Widgets
  • user-avatar
    Login

    Hourly Weather Le Kremlin-Bicetre

    Today, 5 June, Friday

    Time Temperature Precipitation Wind Pressure Humidity
    00:00 +10°C° 0 mm 2 mps 745 mmHg 80%
    01:00 +10°C° 0 mm 3 mps 745 mmHg 80%
    02:00 +10°C° 0 mm 3 mps 744 mmHg 80%
    03:00 +10°C° 0 mm 4 mps 744 mmHg 80%
    04:00 +10°C° 0.1 mm 4 mps 744 mmHg 82%
    05:00 +9°C° 0.1 mm 5 mps 743 mmHg 83%
    06:00 +10°C° 0.1 mm 5 mps 743 mmHg 85%
    07:00 +10°C° 0.2 mm 5 mps 743 mmHg 86%
    08:00 +11°C° 0.2 mm 6 mps 742 mmHg 86%
    09:00 +11°C° 0.2 mm 6 mps 742 mmHg 87%
    10:00 +12°C° 0.3 mm 7 mps 742 mmHg 80%
    11:00 +15°C° 0.3 mm 7 mps 742 mmHg 73%
    12:00 +16°C° 0.3 mm 7 mps 742 mmHg 67%
    13:00 +15°C° 0.1 mm 7 mps 742 mmHg 66%
    14:00 +15°C° 0.1 mm 7 mps 743 mmHg 65%
    15:00 +15°C° 0.1 mm 7 mps 743 mmHg 65%
    16:00 +14°C° 0.1 mm 6 mps 743 mmHg 64%
    17:00 +14°C° 0.1 mm 6 mps 744 mmHg 64%
    18:00 +14°C° 0.1 mm 5 mps 744 mmHg 63%
    19:00 +13°C° 0 mm 5 mps 744 mmHg 65%
    20:00 +13°C° 0 mm 4 mps 745 mmHg 68%
    21:00 +12°C° 0 mm 4 mps 745 mmHg 71%
    22:00 +12°C° 0.2 mm 4 mps 745 mmHg 75%
    23:00 +12°C° 0.2 mm 4 mps 745 mmHg 79%

    Tomorrow, 6 June, Saturday

    Time Temperature Precipitation Wind Pressure Humidity
    00:00 +12°C° 0.2 mm 4 mps 745 mmHg 83%
    01:00 +12°C° 0.5 mm 4 mps 745 mmHg 83%
    02:00 +12°C° 0.5 mm 4 mps 744 mmHg 82%
    03:00 +11°C° 0.5 mm 4 mps 744 mmHg 82%
    04:00 +11°C° 0 mm 4 mps 745 mmHg 79%
    05:00 +11°C° 0 mm 4 mps 745 mmHg 77%
    06:00 +11°C° 0 mm 4 mps 745 mmHg 75%
    07:00 +12°C° 0 mm 5 mps 745 mmHg 67%
    08:00 +13°C° 0 mm 5 mps 746 mmHg 60%
    09:00 +14°C° 0 mm 6 mps 746 mmHg 53%
    10:00 +15°C° 0 mm 6 mps 746 mmHg 51%
    11:00 +15°C° 0 mm 6 mps 747 mmHg 49%
    12:00 +16°C° 0 mm 6 mps 747 mmHg 47%
    13:00 +16°C° 0 mm 6 mps 747 mmHg 48%
    14:00 +16°C° 0 mm 6 mps 747 mmHg 49%
    15:00 +15°C° 0 mm 6 mps 747 mmHg 50%
    16:00 +15°C° 0 mm 6 mps 747 mmHg 52%
    17:00 +14°C° 0 mm 5 mps 747 mmHg 54%
    18:00 +14°C° 0 mm 5 mps 746 mmHg 55%
    19:00 +13°C° 0 mm 5 mps 747 mmHg 58%
    20:00 +12°C° 0 mm 4 mps 747 mmHg 60%
    21:00 +10°C° 0 mm 4 mps 747 mmHg 63%
    22:00 +10°C° 0 mm 4 mps 747 mmHg 66%
    23:00 +9°C° 0 mm 5 mps 748 mmHg 69%

    Day after tomorrow, 7 June, Sunday

    Time Temperature Precipitation Wind Pressure Humidity
    00:00 +9°C° 0 mm 5 mps 748 mmHg 72%
    01:00 +10°C° 0 mm 4 mps 748 mmHg 76%
    02:00 +10°C° 0 mm 4 mps 748 mmHg 79%
    03:00 +8°C° 0 mm 4 mps 748 mmHg 83%
    04:00 +10°C° 0 mm 4 mps 749 mmHg 82%
    05:00 +10°C° 0 mm 3 mps 749 mmHg 82%
    06:00 +11°C° 0 mm 3 mps 749 mmHg 81%
    07:00 +12°C° 0 mm 3 mps 750 mmHg 75%
    08:00 +14°C° 0 mm 3 mps 750 mmHg 69%
    09:00 +16°C° 0 mm 3 mps 750 mmHg 63%
    10:00 +17°C° 0.2 mm 3 mps 750 mmHg 60%
    11:00 +18°C° 0.2 mm 3 mps 750 mmHg 57%
    12:00 +19°C° 0.2 mm 3 mps 750 mmHg 54%
    13:00 +19°C° 0.1 mm 3 mps 750 mmHg 53%
    14:00 +19°C° 0.1 mm 3 mps 750 mmHg 53%
    15:00 +20°C° 0.1 mm 3 mps 750 mmHg 52%
    16:00 +19°C° 0.2 mm 3 mps 750 mmHg 56%
    17:00 +18°C° 0.2 mm 3 mps 750 mmHg 60%
    18:00 +18°C° 0.2 mm 2 mps 750 mmHg 64%
    19:00 +17°C° 0.1 mm 2 mps 750 mmHg 68%
    20:00 +15°C° 0.1 mm 2 mps 751 mmHg 72%
    21:00 +14°C° 0.1 mm 1 mps 751 mmHg 75%
    22:00 +14°C° 0.1 mm 1 mps 751 mmHg 77%
    23:00 +13°C° 0.1 mm 1 mps 751 mmHg 79%

    8 June, Monday

    Time Temperature Precipitation Wind Pressure Humidity
    00:00 +13°C° 0.1 mm 1 mps 751 mmHg 81%
    01:00 +12°C° 0 mm 1 mps 751 mmHg 82%
    02:00 +12°C° 0 mm 1 mps 751 mmHg 82%
    03:00 +12°C° 0 mm 1 mps 751 mmHg 83%
    04:00 +12°C° 0.1 mm 1 mps 751 mmHg 81%
    05:00 +13°C° 0.1 mm 1 mps 752 mmHg 80%
    06:00 +13°C° 0.1 mm 1 mps 752 mmHg 78%
    07:00 +15°C° 0.1 mm 1 mps 752 mmHg 72%
    08:00 +18°C° 0.1 mm 1 mps 752 mmHg 66%
    09:00 +19°C° 0.1 mm 1 mps 753 mmHg 59%
    10:00 +20°C° 0.1 mm 1 mps 753 mmHg 55%
    11:00 +21°C° 0.1 mm 1 mps 752 mmHg 50%
    12:00 +23°C° 0.1 mm 1 mps 752 mmHg 45%
    13:00 +21°C° 0.4 mm 2 mps 752 mmHg 49%
    14:00 +21°C° 0.4 mm 3 mps 752 mmHg 53%
    15:00 +20°C° 0.4 mm 4 mps 752 mmHg 56%
    16:00 +20°C° 0.5 mm 4 mps 752 mmHg 60%
    17:00 +19°C° 0.5 mm 4 mps 753 mmHg 65%
    18:00 +18°C° 0.5 mm 4 mps 753 mmHg 69%
    19:00 +17°C° 0.2 mm 4 mps 753 mmHg 73%
    20:00 +15°C° 0.2 mm 4 mps 754 mmHg 77%
    21:00 +14°C° 0.2 mm 4 mps 754 mmHg 81%
    22:00 +13°C° 0 mm 4 mps 754 mmHg 83%
    23:00 +13°C° 0 mm 4 mps 754 mmHg 85%

    9 June, Tuesday

    Time Temperature Precipitation Wind Pressure Humidity
    00:00 +12°C° 0 mm 4 mps 754 mmHg 87%
    01:00 +12°C° 0 mm 3 mps 754 mmHg 88%
    02:00 +11°C° 0 mm 3 mps 754 mmHg 89%
    03:00 +11°C° 0 mm 3 mps 754 mmHg 90%
    04:00 +11°C° 0 mm 3 mps 754 mmHg 90%
    05:00 +12°C° 0 mm 3 mps 754 mmHg 89%
    06:00 +12°C° 0 mm 3 mps 755 mmHg 89%
    07:00 +13°C° 0 mm 3 mps 755 mmHg 86%
    08:00 +14°C° 0 mm 3 mps 755 mmHg 82%
    09:00 +16°C° 0 mm 3 mps 755 mmHg 78%
    10:00 +18°C° 0.4 mm 3 mps 755 mmHg 71%
    11:00 +20°C° 0.4 mm 2 mps 756 mmHg 64%
    12:00 +21°C° 0.4 mm 2 mps 756 mmHg 57%
    13:00 +21°C° 0.9 mm 3 mps 755 mmHg 57%
    14:00 +21°C° 0.9 mm 3 mps 755 mmHg 57%
    15:00 +22°C° 0.9 mm 4 mps 755 mmHg 57%
    16:00 +21°C° 0.5 mm 4 mps 755 mmHg 61%
    17:00 +20°C° 0.5 mm 4 mps 755 mmHg 65%
    18:00 +19°C° 0.5 mm 4 mps 756 mmHg 69%
    19:00 +18°C° 0.2 mm 4 mps 756 mmHg 73%
    20:00 +17°C° 0.2 mm 4 mps 756 mmHg 76%
    21:00 +15°C° 0.2 mm 5 mps 757 mmHg 79%
    22:00 +15°C° 0 mm 4 mps 757 mmHg 82%
    23:00 +14°C° 0 mm 4 mps 757 mmHg 84%

    10 June, Wednesday

    Time Temperature Precipitation Wind Pressure Humidity
    00:00 +14°C° 0 mm 4 mps 757 mmHg 86%
    01:00 +13°C° 0 mm 4 mps 757 mmHg 88%
    02:00 +13°C° 0 mm 4 mps 757 mmHg 89%
    03:00 +12°C° 0 mm 4 mps 757 mmHg 91%
    04:00 +12°C° 0 mm 4 mps 757 mmHg 90%
    05:00 +13°C° 0 mm 4 mps 758 mmHg 90%
    06:00 +13°C° 0 mm 5 mps 758 mmHg 90%
    07:00 +13°C° 0 mm 5 mps 758 mmHg 87%
    08:00 +14°C° 0 mm 5 mps 758 mmHg 84%
    09:00 +14°C° 0 mm 4 mps 759 mmHg 81%
    10:00 +16°C° 0 mm 5 mps 758 mmHg 75%
    11:00 +17°C° 0 mm 5 mps 758 mmHg 69%
    12:00 +20°C° 0 mm 5 mps 758 mmHg 63%
    13:00 +21°C° 0.1 mm 5 mps 758 mmHg 61%
    14:00 +21°C° 0.1 mm 6 mps 757 mmHg 58%
    15:00 +22°C° 0.1 mm 6 mps 757 mmHg 56%
    16:00 +21°C° 0.1 mm 6 mps 757 mmHg 59%
    17:00 +21°C° 0.1 mm 5 mps 757 mmHg 62%
    18:00 +20°C° 0.1 mm 5 mps 757 mmHg 65%
    19:00 +19°C° 0 mm 5 mps 758 mmHg 68%
    20:00 +17°C° 0 mm 5 mps 758 mmHg 72%
    21:00 +16°C° 0 mm 5 mps 758 mmHg 75%
    22:00 +15°C° 0 mm 5 mps 758 mmHg 77%
    23:00 +15°C° 0 mm 5 mps 758 mmHg 80%
    Show more